Englewood, CO

10:29 AM MDT on September 29, 2016 (GMT -0600)
Centennial

Weather History for KAPA - March, 2014

Change the Weather History Date:

Friday, March 14, 2014

  Actual Average Record
Temperature  
Mean Temperature 42 °F -  
Max Temperature 59 °F 51 °F 72 °F (2003)
Min Temperature 25 °F 26 °F 6 °F (1997)
Degree Days  
Heating Degree Days 23    
Month to date heating degree days 371  
Moisture  
Dew Point 19 °F    
Average Humidity 45    
Maximum Humidity 75    
Minimum Humidity 15    
Precipitation  
Precipitation 0.00 in - - ()
Month to date precipitation 0.70  
Year to date precipitation 1.55  
Sea Level Pressure  
Sea Level Pressure 29.94 in    
Wind  
Wind Speed 7 mph (SSE)    
Max Wind Speed 18 mph    
Max Gust Speed 23 mph    
Visibility 10 miles    
Events      
Averages and records for this station are not official NWS values.
T = Trace of Precipitation, MM = Missing Value Source: NWS Daily Summary

Daily Weather History Graph

Daily Weather History Graph

Search for Another Location

Airport or City:

Trip Planner

Search our weather history database for the weather conditions in past years. The results will help you decide how hot, cold, wet, or windy it might be!

Date:

Astronomy

Mar. 14, 2014 Rise Set
Actual Time 7:12 AM MDT 7:05 PM MDT
Civil Twilight 6:45 AM MDT 7:32 PM MDT
Nautical Twilight 6:14 AM MDT 8:03 PM MDT
Astronomical Twilight 5:42 AM MDT 8:35 PM MDT
Moon 5:30 PM MDT (3/14) 5:53 AM MDT (3/14)
Length of Visible Light 12h 46m
Length of Day
11h 53m
Waxing Gibbous, 96% of the Moon is Illuminated
Mar 14
Waxing Gibbous
Mar 16
Full
Mar 23
Last Quarter
Mar 30
New
Apr 7
First Quarter

Hourly Weather History & Observations

Time (MDT) Temp. Windchill Dew Point Humidity Pressure Visibility Wind Dir Wind Speed Gust Speed Precip Events Conditions
12:53 AM 42.1 °F 38.4 °F 16.0 °F 35% 29.90 in 10.0 mi North 5.8 mph - N/A   Mostly Cloudy
1:53 AM 37.9 °F 32.7 °F 17.1 °F 43% 29.95 in 10.0 mi NE 6.9 mph - N/A   Partly Cloudy
2:53 AM 36.0 °F - 18.0 °F 48% 29.96 in 10.0 mi Calm Calm - N/A   Clear
3:53 AM 36.0 °F - 18.0 °F 48% 29.97 in 10.0 mi Calm Calm - N/A   Clear
4:53 AM 28.9 °F 22.8 °F 19.0 °F 67% 30.01 in 10.0 mi SW 5.8 mph - N/A   Clear
5:53 AM 30.9 °F 26.2 °F 18.0 °F 59% 30.01 in 10.0 mi SW 4.6 mph - N/A   Clear
6:53 AM 26.1 °F 17.6 °F 19.0 °F 75% 30.05 in 10.0 mi South 8.1 mph - N/A   Clear
7:53 AM 30.9 °F 23.5 °F 21.0 °F 67% 30.06 in 10.0 mi South 8.1 mph - N/A   Partly Cloudy
8:53 AM 39.0 °F 32.8 °F 19.9 °F 46% 30.04 in 10.0 mi South 9.2 mph - N/A   Partly Cloudy
9:53 AM 45.0 °F 38.9 °F 19.0 °F 36% 30.01 in 10.0 mi South 12.7 mph - N/A   Partly Cloudy
10:53 AM 48.9 °F - 19.0 °F 31% 29.98 in 10.0 mi South 15.0 mph - N/A   Partly Cloudy
11:53 AM 52.0 °F - 19.9 °F 28% 29.95 in 10.0 mi SSE 13.8 mph - N/A   Partly Cloudy
12:53 PM 55.0 °F - 19.9 °F 25% 29.92 in 10.0 mi SSE 13.8 mph 20.7 mph N/A   Partly Cloudy
1:53 PM 55.9 °F - 17.1 °F 22% 29.90 in 10.0 mi SSE 10.4 mph - N/A   Partly Cloudy
2:53 PM 57.9 °F - 10.9 °F 16% 29.88 in 10.0 mi West 6.9 mph - N/A   Partly Cloudy
3:53 PM 57.9 °F - 15.1 °F 19% 29.86 in 10.0 mi SE 9.2 mph - N/A   Partly Cloudy
4:53 PM 57.9 °F - 19.0 °F 22% 29.87 in 10.0 mi SSE 13.8 mph - N/A   Partly Cloudy
5:53 PM 55.9 °F - 19.9 °F 25% 29.87 in 10.0 mi SSE 12.7 mph - N/A   Partly Cloudy
6:53 PM 51.1 °F - 21.9 °F 32% 29.91 in 10.0 mi SSE 11.5 mph - N/A   Partly Cloudy
7:53 PM 46.0 °F 41.4 °F 21.9 °F 39% 29.91 in 10.0 mi SSE 9.2 mph - N/A   Scattered Clouds
8:53 PM 45.0 °F 39.7 °F 21.9 °F 40% 29.90 in 10.0 mi South 10.4 mph - N/A   Scattered Clouds
9:53 PM 42.1 °F 37.7 °F 21.9 °F 45% 29.89 in 10.0 mi SSE 6.9 mph - N/A   Mostly Cloudy
10:53 PM 39.0 °F - 19.9 °F 46% 29.89 in 10.0 mi Calm Calm - N/A   Mostly Cloudy
11:53 PM 36.0 °F 31.1 °F 19.0 °F 50% 29.88 in 10.0 mi East 5.8 mph - N/A   Mostly Cloudy